This demonstration page uses our WeatherBlox Daily Observations layout. Learn more.

38.88101, -77.10428

Hourly Observations for August 4, 2019

Temp ( °F °C ) Dew Point ( °F °C ) Humidity (%) Winds ( mph kmh ) Pressure ( in mb ) Visibility ( mi km ) Precip ( " mm )
12:17 am 00:17 Mostly Cloudy 79 26.1 70 21.1 74 74 Calm 29.97 1015 10 16.09344 0 0
12:52 am 00:52 Cloudy 80 26.7 71 21.7 74 74 NW 3 6 29.94 1014 10 16.09344 0 0
1:52 am 01:52 Cloudy 78 25.6 68 20 71 71 NNE 5 7 29.94 1014 10 16.09344 0 0
2:52 am 02:52 Cloudy 77 25 69 20.6 77 77 SSW 7 11 29.91 1013 10 16.09344 0 0
3:52 am 03:52 Cloudy 77 25 69 20.6 77 77 Calm 29.91 1013 10 16.09344 0 0
4:52 am 04:52 Cloudy 78 25.6 71 21.7 79 79 Calm 29.91 1013 10 16.09344 0.001 0.001
5:52 am 05:52 Cloudy 77 25 70 21.1 79 79 N 6 9 29.91 1013 10 16.09344 0 0
6:52 am 06:52 Mostly Cloudy 77 25 70 21.1 79 79 N 3 6 29.91 1013 10 16.09344 0 0
7:52 am 07:52 Mostly Cloudy 79 26.1 68 20 69 69 NNW 9 15 29.94 1014 10 16.09344 0 0
8:52 am 08:52 Mostly Cloudy 81 27.2 69 20.6 67 67 NNW 10 17 29.94 1014 10 16.09344 0 0
9:52 am 09:52 Sunny 84 28.9 69 20.6 61 61 NW 8 13 29.94 1014 10 16.09344 0 0
9:54 am 09:54 Mostly Cloudy 83 28.3 69 20.6 63 63 NNW 9 15 29.94 1014 10 16.09344 0 0
10:52 am 10:52 Mostly Cloudy 85 29.4 68 20 57 57 VRB 7 11 29.94 1014 10 16.09344 0 0
11:52 am 11:52 Mostly Cloudy 88 31.1 69 20.6 54 54 WNW 8 13 29.94 1014 10 16.09344 0 0
12:52 pm 12:52 Mostly Cloudy 89 31.7 66 18.9 47 47 NNW 10 17 29.91 1013 10 16.09344 0 0
1:52 pm 13:52 Mostly Cloudy 91 32.8 63 17.2 39 39 NNW 6 9 29.91 1013 10 16.09344 0 0
2:52 pm 14:52 Mostly Cloudy 91 32.8 64 17.8 41 41 N 10 17 29.88 1012 10 16.09344 0 0
3:52 pm 15:52 Mostly Cloudy 90 32.2 59 15 35 35 NNW 12 19 29.88 1012 10 16.09344 0 0
4:52 pm 16:52 Mostly Cloudy 91 32.8 60 15.6 35 35 N 7 11 29.88 1012 10 16.09344 0 0
5:52 pm 17:52 Mostly Cloudy 91 32.8 59 15 34 34 NNE 10 17 29.88 1012 10 16.09344 0 0
6:52 pm 18:52 Mostly Cloudy 89 31.7 59 15 36 36 NW 8 13 29.88 1012 10 16.09344 0 0
7:52 pm 19:52 Mostly Cloudy 86 30 59 15 40 40 NNW 9 15 29.91 1013 10 16.09344 0 0
8:52 pm 20:52 Mostly Cloudy 85 29.4 58 14.4 40 40 NW 6 9 29.91 1013 10 16.09344 0 0
9:52 pm 21:52 Mostly Cloudy 83 28.3 63 17.2 51 51 NNE 3 6 29.91 1013 10 16.09344 0 0
10:52 pm 22:52 Mostly Cloudy 80 26.7 69 20.6 69 69 S 3 6 29.91 1013 10 16.09344 0 0
11:52 pm 23:52 Cloudy 81 27.2 65 18.3 58 58 Calm 29.94 1014 10 16.09344 0 0

Powered by AerisWeather